Regional Weather Roundup
Issued by NWS

Home | Current Version | Previous Version | Text Only | Print | Product List | Glossary Off
Versions: 1 2 3 4 5 6 7 8 9 10 11 12 13 14 15 16 17 18 19 20 21 22 23 24 25 26 27 28 29 30 31 32 33 34 35 36 37 38 39 40 41 42 43 44 45 46 47 48 49 50

000
ASUS43 KMKX 010500
RWRWI

WISCONSIN REGIONAL WEATHER ROUNDUP
NATIONAL WEATHER SERVICE MILWAUKEE/SULLIVAN WI
1200 AM CDT WED JUN 01 2016

NOTE: "FAIR" INDICATES FEW OR NO CLOUDS BELOW 12,000 FEET WITH NO
SIGNIFICANT WEATHER AND/OR OBSTRUCTIONS TO VISIBILITY.

WIZ001-002-006>008-014>016-023>028-010600-
NORTHWEST WISCONSIN

CITY           SKY/WX    TMP DP  RH WIND       PRES   REMARKS
SUPERIOR ARPT  CLOUDY    42  42 100 E5        29.88F FOG
ASHLAND        FOG       48  47  96 CALM      29.86F VSB 1/2
HAYWARD        CLOUDY    59  57  93 CALM      29.86F
SIREN          PTCLDY    63  60  91 S8        29.85S
CUMBERLAND     CLOUDY    61  59  94 S9        29.87F
RICE LAKE      CLOUDY    62  60  93 S6        29.89S
CHETEK         CLOUDY    61  61  99 S6        29.88S
LADYSMITH      CLOUDY    62  60  96 S6        29.90F
EAU CLAIRE     CLOUDY    62  61  96 S9        29.88S
MENOMONIE      CLOUDY    64  64 100 S6        29.88F
NEW RICHMOND   CLEAR     61  60  99 S6        29.87S
OSCEOLA        CLEAR     62  62 100 S7        29.88S
$$

WIZ003>005-009-010-017-018-010600-
NORTH CENTRAL WISCONSIN

CITY           SKY/WX    TMP DP  RH WIND       PRES   REMARKS
MANITOWISH WTR LGT RAIN  58  58 100 SE7       29.90F
ARBOR VITAE    LGT RAIN  59  58  94 SE8       29.91F
WOODRUFF       LGT RAIN  59  58  94 SE8       29.91F
RHINELANDER    LGT RAIN  59  57  93 SE7       29.92F
EAGLE RIVER    LGT RAIN  58  52  81 SE5       29.92F
LAND O LAKES   CLOUDY    59  52  77 SE7       29.93F
PHILLIPS       CLOUDY    59  59 100 S5        29.89S
TOMAHAWK       RAIN      59  57  94 SE5       29.91F
MEDFORD        RAIN      60  60 100 S9        29.90F
MERRILL        LGT RAIN N/A N/A N/A SE8       29.92F
$$

WIZ029-030-035-036-043>047-010600-
CENTRAL WISCONSIN

CITY           SKY/WX    TMP DP  RH WIND       PRES   REMARKS
WAUSAU         LGT RAIN  62  59  90 SE7       29.91F
MOSINEE        RAIN      59  59 100 SE5       29.94F
MARSHFIELD     LGT RAIN  62  59  90 SE9       29.90F
STEVENS POINT  LGT RAIN  60  59  98 SE3       29.95F
WAUPACA        CLOUDY    66  64  91 CALM      29.96S
WAUTOMA        RAIN     N/A N/A N/A CALM      29.95S
WISC RAPIDS    RAIN      62  59  90 SE5       29.93F
CAMP DOUGLAS   LGT RAIN  63  63 100 SE7       29.91F
$$

WIZ011>013-019>022-031-037>040-048>050-010600-
NORTHEAST WISCONSIN

CITY           SKY/WX    TMP DP  RH WIND       PRES   REMARKS
ANTIGO         DRIZZLE   57  56  97 SE10      29.96R
SHAWANO        CLOUDY    61  57  84 E5        29.96S
OCONTO         CLOUDY   N/A N/A N/A CALM      29.94F
STURGEON BAY   CLOUDY    61  52  72 SE7       29.96S
GREEN BAY      CLOUDY    60  54  80 SE8       29.95S
MANITOWOC      NOT AVBL
APPLETON       CLOUDY    61  52  72 SE5       29.95S
CLINTONVILLE   CLOUDY    61  55  82 CALM      29.96S
OSHKOSH        CLOUDY    64  58  80 SE8       29.94F
$$

WIZ032>034-041-042-053>061-010600-
SOUTHWEST WISCONSIN

CITY           SKY/WX    TMP DP  RH WIND       PRES   REMARKS
LA CROSSE      CLOUDY    65  63  93 SW3       29.90S
SPARTA         CLOUDY    62  61  99 S5        29.91S
VIROQUA        CLOUDY    62  62 100 SE10      29.92S
BOSCOBEL       NOT AVBL
PRAIRIE DU CHI CLOUDY    63  62  96 CALM      29.91F
PLATTEVILLE    CLOUDY    67  64  91 SW9       29.95S
$$

WIZ056-057-062-063-064-067-068-010600-
SOUTH CENTRAL WISCONSIN

CITY           SKY/WX    TMP DP  RH WIND       PRES   REMARKS
REEDSBURG      RAIN      62  62 100 S3        29.94F
BARABOO/DELLS  LGT RAIN  64  61  91 S3        29.95F
LONE ROCK      RAIN      64  63  96 CALM      29.95F
MINERAL POINT  LGT RAIN  64  63  94 E5        29.94F
MADISON        CLOUDY    66  61  84 SW3       29.93S
MIDDLETON      CLOUDY    66  61  84 NW5       29.95S
WATERTOWN      CLOUDY    63  63 100 SE3       29.94F
MONROE         CLOUDY    64  61  88 S12       29.93F
JANESVILLE     CLOUDY    66  61  82 S7        29.94F
$$

WIZ051-052-058>065-066-070>072-010600-
SOUTHEAST WISCONSIN

CITY           SKY/WX    TMP DP  RH WIND       PRES   REMARKS
MILWAUKEE      MOCLDY    60  56  86 SE6       29.96F
WAUKESHA       CLOUDY    61  59  94 SE3       29.97F
MILWAUKEE/TIMM CLOUDY    61  52  72 SE3       29.98F
RACINE         CLOUDY    62  54  74 S7        29.98F
BURLINGTON     CLOUDY    62  60  93 CALM      29.97S
KENOSHA        MOCLDY    63  58  83 SE6       29.97F
FOND DU LAC    LGT RAIN  62  57  83 SE13      29.95S
SHEBOYGAN      LGT RAIN  57  52  83 W6        29.97S
WEST BEND      CLOUDY    55  52  88 CALM      29.97S
JUNEAU         CLOUDY    63  60  90 SE5       29.96S
$$

LSZ147-162-010600-
LAKE SUPERIOR

STATION/POSITION TIME  TEMP    WIND        PRES    WAVE
                       AIR SEA DIR/SP/G            HT/PER
                 (UTC) (F)     (DEG/KT/KT) (MB)    (FT/S)
W MID LAKE BUOY  0350   41 38   70/ 10/ 12 1012.5F   3/ 5
DEVILS ISLAND    0400   42      50/  6/  7 1012.2F
PORT WING        0400   41      20/  9/ 10 1012.5
SAXON HARBOR     0440   50     300/  3/  6 1010.8S
$$

LMZ867-665-643>646-010600-
LAKE MICHIGAN

STATION/POSITION TIME  TEMP    WIND        PRES    WAVE
                       AIR SEA DIR/SP/G            HT/PER
                 (UTC) (F)     (DEG/KT/KT) (MB)    (FT/S)
CHAMBERS ISLAND  0400   60      CALM  /  3 1014.9F
N MID LAKE BUOY  0350   53 48  110/  8/  8 1014.7F   1/ 3
NORTHPORT PIER   0400   58     120/  2/  4 1014.9F
SISTER BAY       0405   61      90/ 12/ 15   N/A
ALGOMA LAKESHORE 0417             CALM       N/A
KEWAUNEE LAKESHO 0400   53      20/  3/  4 1014.1F
SHEBOYGAN LAKESH 0400   54      CALM  /  2 1015.0F
PORT WASHINGTON  0400   57     260/  2/  2 1015.6S
S MID LAKE BUOY  0350   58 54   90/ 10/ 12 1014.4R   1/ 4
KENOSHA   LAKESH 0400   59     180/  5/  7 1015.2R
$$

TC  - TEMPERATURE IN CELSIUS
VSB - VISIBILITY IN STATUTE MILES
WCI - WIND CHILL INDEX
HX  - HEAT INDEX





USA.gov is the U.S. government's official web portal to all federal, state and local government web resources and services.